Weather History for Quantico, VA

Change the Weather History Date:

Tuesday, October 18, 2011

  Actual Average Record
Temperature  
Mean Temperature 64 °F -  
Max Temperature 75 °F 63 °F 80 °F (2005)
Min Temperature 55 °F 45 °F 35 °F (2001)
Degree Days  
Heating Degree Days 1    
Growing Degree Days 14 (Base 50)    
Moisture  
Dew Point 55 °F    
Average Humidity 75    
Maximum Humidity 88    
Minimum Humidity 48    
Precipitation  
Precipitation 0.00 in - - ()
Sea Level Pressure  
Sea Level Pressure 29.83 in    
Wind  
Wind Speed 4 mph (North)    
Max Wind Speed 7 mph    
Max Gust Speed -    
Visibility 10 miles    
Events Rain    
Averages and records for this station are not official NWS values.
T = Trace of Precipitation, MM = Missing Value Source: NWS Daily Summary

Daily Weather History Graph

Daily Weather History Graph

Search for Another Location

Airport:

Trip Planner

Search our weather history database for the weather conditions in past years. The results will help you decide how hot, cold, wet, or windy it might be!

Date:

Astronomy

Oct. 18, 2011 Rise Set
Actual Time 7:20 AM EDT 6:27 PM EDT
Civil Twilight 6:54 AM EDT 6:54 PM EDT
Nautical Twilight 6:23 AM EDT 7:24 PM EDT
Astronomical Twilight 5:52 AM EDT 7:55 PM EDT
Moon 11:08 PM EDT (10/18) 1:07 PM EDT (10/18)
Length of Visible Light 11h 59m
Length of Day
11h 06m
Waning Gibbous, 65% of the Moon is Illuminated
Oct 18
Waning Gibbous
Oct 19
Last Quarter
Oct 26
New
Nov 2
First Quarter
Nov 10
Full

Hourly Weather History & Observations

Time (EDT) Temp. Dew Point Humidity Pressure Visibility Wind Dir Wind Speed Gust Speed Precip Events Conditions
12:56 AM 57.0 °F 52.0 °F 83% 29.83 in 10.0 mi NW 4.6 mph - N/A   Partly Cloudy
1:56 AM 55.9 °F 52.0 °F 87% 29.83 in 10.0 mi NW 4.6 mph - N/A   Partly Cloudy
2:56 AM 55.9 °F 52.0 °F 87% 29.82 in 10.0 mi NW 4.6 mph - N/A   Mostly Cloudy
3:56 AM 57.0 °F 53.1 °F 87% 29.83 in 10.0 mi WNW 5.8 mph - N/A   Overcast
4:56 AM 57.0 °F 53.1 °F 87% 29.84 in 10.0 mi NW 4.6 mph - N/A   Mostly Cloudy
5:56 AM 55.9 °F 52.0 °F 87% 29.86 in 10.0 mi NW 6.9 mph - N/A   Clear
6:56 AM 55.9 °F 52.0 °F 87% 29.86 in 10.0 mi NW 4.6 mph - N/A   Scattered Clouds
7:56 AM 57.0 °F 53.1 °F 87% 29.87 in 10.0 mi North 3.5 mph - N/A   Clear
8:03 AM 57.2 °F 53.6 °F 88% 29.86 in 10.0 mi Calm Calm - N/A   Partly Cloudy
8:56 AM 59.0 °F 54.0 °F 83% 29.88 in 10.0 mi NW 4.6 mph - N/A   Scattered Clouds
9:56 AM 60.1 °F 55.0 °F 83% 29.89 in 10.0 mi Calm Calm - N/A   Mostly Cloudy
10:56 AM 64.0 °F 57.0 °F 78% 29.89 in 10.0 mi Calm Calm - N/A   Mostly Cloudy
11:56 AM 68.0 °F 57.0 °F 68% 29.88 in 10.0 mi Calm Calm - N/A   Partly Cloudy
12:56 PM 72.0 °F 55.0 °F 55% 29.85 in 10.0 mi NNE 5.8 mph - N/A   Mostly Cloudy
1:56 PM 73.0 °F 53.1 °F 49% 29.82 in 10.0 mi NE 5.8 mph - N/A   Clear
2:56 PM 73.9 °F 53.1 °F 48% 29.80 in 10.0 mi ENE 3.5 mph - N/A   Mostly Cloudy
3:56 PM 73.9 °F 54.0 °F 50% 29.80 in 10.0 mi Calm Calm - N/A   Mostly Cloudy
4:56 PM 72.0 °F 55.9 °F 57% 29.78 in 10.0 mi ENE 4.6 mph - N/A   Partly Cloudy
5:56 PM 72.0 °F 59.0 °F 64% 29.78 in 10.0 mi Calm Calm - N/A   Clear
6:56 PM 66.0 °F 59.0 °F 78% 29.79 in 10.0 mi Calm Calm - N/A   Clear
7:56 PM 64.9 °F 59.0 °F 81% 29.80 in 10.0 mi NNW 3.5 mph - N/A   Clear
8:56 PM 68.0 °F 59.0 °F 73% 29.79 in 10.0 mi ENE 3.5 mph - N/A   Clear
9:56 PM 66.9 °F 57.9 °F 73% 29.80 in 10.0 mi NE 3.5 mph - N/A   Clear
10:56 PM 66.0 °F 59.0 °F 78% 29.78 in 10.0 mi East 5.8 mph - N/A   Scattered Clouds
11:56 PM 66.0 °F 60.1 °F 81% 29.74 in 10.0 mi ENE 3.5 mph - 0.00 in Rain Light Rain